Silver City, NM

10:13 AM MDT on May 22, 2017 (GMT -0600)
Grant County

Weather History for KSVC - November, 2012

Change the Weather History Date:

Tuesday, November 6, 2012

  Actual Average (KDMN) Record (KDMN)
Temperature  
Mean Temperature 59 °F -  
Max Temperature 77 °F 71 °F 82 °F (1950)
Min Temperature 41 °F 35 °F 23 °F (1954)
Degree Days  
Heating Degree Days 6    
Growing Degree Days 9 (Base 50)    
Moisture  
Dew Point 16 °F    
Average Humidity 22    
Maximum Humidity 39    
Minimum Humidity 10    
Precipitation  
Precipitation 0.00 in - - ()
Sea Level Pressure  
Sea Level Pressure 30.27 in    
Wind  
Wind Speed 8 mph (NW)    
Max Wind Speed 12 mph    
Max Gust Speed -    
Visibility 10 miles    
Events      
Averages and records for this station are not official NWS values.
T = Trace of Precipitation, MM = Missing Value Source: NWS Daily Summary

Daily Weather History Graph

Daily Weather History Graph

Search for Another Location

Airport or City:

Trip Planner

Search our weather history database for the weather conditions in past years. The results will help you decide how hot, cold, wet, or windy it might be!

Date:

Astronomy

Nov. 06, 2012 Rise Set
Actual Time 6:34 AM MST 5:17 PM MST
Civil Twilight 6:09 AM MST 5:42 PM MST
Nautical Twilight 5:39 AM MST 6:12 PM MST
Astronomical Twilight 5:10 AM MST 6:41 PM MST
Moon 11:55 PM MST (11/6) 12:31 PM MST (11/6)
Length of Visible Light 11h 33m
Length of Day
10h 42m
Waning Gibbous, 52% of the Moon is Illuminated
Nov 6
Waning Gibbous
Nov 6
Last Quarter
Nov 13
New
Nov 20
First Quarter
Nov 28
Full

Hourly Weather History & Observations

Time (MST) Temp. Windchill Dew Point Humidity Pressure Visibility Wind Dir Wind Speed Gust Speed Precip Events Conditions
12:15 AM 44.6 °F 40.2 °F 14.0 °F 29% 30.28 in 10.0 mi NNW 8.1 mph - N/A   Clear
12:35 AM 44.6 °F 40.2 °F 14.0 °F 29% 30.28 in 10.0 mi North 8.1 mph - N/A   Clear
12:55 AM 44.6 °F 40.2 °F 14.0 °F 29% 30.28 in 10.0 mi North 8.1 mph - N/A   Clear
1:15 AM 44.6 °F 39.2 °F 14.0 °F 29% 30.28 in 10.0 mi North 10.4 mph - N/A   Clear
1:35 AM 42.8 °F 37.0 °F 14.0 °F 31% 30.28 in 10.0 mi NNW 10.4 mph - N/A   Clear
1:55 AM 42.8 °F 37.5 °F 14.0 °F 31% 30.27 in 10.0 mi North 9.2 mph - N/A   Clear
2:15 AM 46.4 °F 41.5 °F 15.8 °F 29% 30.27 in 10.0 mi North 10.4 mph - N/A   Clear
2:35 AM 46.4 °F 41.5 °F 17.6 °F 32% 30.27 in 10.0 mi North 10.4 mph - N/A   Clear
2:55 AM 46.4 °F 41.9 °F 17.6 °F 32% 30.27 in 10.0 mi North 9.2 mph - N/A   Clear
3:15 AM 44.6 °F 39.2 °F 15.8 °F 31% 30.27 in 10.0 mi North 10.4 mph - N/A   Clear
3:35 AM 44.6 °F 39.7 °F 17.6 °F 34% 30.26 in 10.0 mi NNW 9.2 mph - N/A   Clear
3:55 AM 44.6 °F 40.7 °F 17.6 °F 34% 30.27 in 10.0 mi NW 6.9 mph - N/A   Clear
4:15 AM 42.8 °F 37.5 °F 17.6 °F 36% 30.26 in 10.0 mi North 9.2 mph - N/A   Clear
4:35 AM 42.8 °F 38.6 °F 17.6 °F 36% 30.27 in 10.0 mi NW 6.9 mph - N/A   Clear
4:55 AM 41.0 °F 35.2 °F 15.8 °F 36% 30.27 in 10.0 mi NW 9.2 mph - N/A   Clear
5:15 AM 41.0 °F 35.2 °F 17.6 °F 39% 30.28 in 10.0 mi NW 9.2 mph - N/A   Clear
5:35 AM 41.0 °F 35.8 °F 17.6 °F 39% 30.28 in 10.0 mi NNW 8.1 mph - N/A   Clear
5:55 AM 41.0 °F 35.2 °F 17.6 °F 39% 30.29 in 10.0 mi North 9.2 mph - N/A   Clear
6:15 AM 44.6 °F 39.2 °F 17.6 °F 34% 30.29 in 10.0 mi North 10.4 mph - N/A   Clear
6:35 AM 44.6 °F 39.7 °F 17.6 °F 34% 30.30 in 10.0 mi NNW 9.2 mph - N/A   Clear
6:55 AM 41.0 °F 34.7 °F 17.6 °F 39% 30.31 in 10.0 mi North 10.4 mph - N/A   Clear
7:15 AM 46.4 °F 42.4 °F 17.6 °F 32% 30.31 in 10.0 mi North 8.1 mph - N/A   Clear
7:35 AM 50.0 °F - 19.4 °F 30% 30.32 in 10.0 mi North 5.8 mph - N/A   Clear
7:55 AM 57.2 °F - 19.4 °F 23% 30.33 in 10.0 mi NNW 3.5 mph - N/A   Clear
8:15 AM 59.0 °F - 19.4 °F 22% 30.33 in 10.0 mi West 5.8 mph - N/A   Clear
8:35 AM 60.8 °F - 19.4 °F 20% 30.33 in 10.0 mi WNW 4.6 mph - N/A   Clear
8:55 AM 64.4 °F - 19.4 °F 18% 30.34 in 10.0 mi WNW 4.6 mph - N/A   Clear
9:15 AM 64.4 °F - 17.6 °F 16% 30.34 in 10.0 mi Calm Calm - N/A   Clear
9:35 AM 66.2 °F - 17.6 °F 15% 30.34 in 10.0 mi Calm Calm - N/A   Clear
9:55 AM 68.0 °F - 17.6 °F 15% 30.34 in 10.0 mi SSW 3.5 mph - N/A   Clear
10:15 AM 69.8 °F - 17.6 °F 14% 30.34 in 10.0 mi South 4.6 mph - N/A   Clear
10:35 AM 69.8 °F - 17.6 °F 14% 30.33 in 10.0 mi Calm Calm - N/A   Clear
10:55 AM 71.6 °F - 17.6 °F 13% 30.33 in 10.0 mi South 8.1 mph - N/A   Clear
11:15 AM 71.6 °F - 17.6 °F 13% 30.32 in 10.0 mi WSW 6.9 mph - N/A   Clear
11:35 AM 71.6 °F - 17.6 °F 13% 30.31 in 10.0 mi SSW 9.2 mph - N/A   Clear
11:55 AM 73.4 °F - 17.6 °F 12% 30.30 in 10.0 mi South 4.6 mph - N/A   Clear
12:15 PM 73.4 °F - 17.6 °F 12% 30.28 in 10.0 mi SW 9.2 mph - N/A   Clear
12:35 PM 73.4 °F - 17.6 °F 12% 30.27 in 10.0 mi SSW 6.9 mph - N/A   Clear
12:55 PM 75.2 °F - 17.6 °F 11% 30.26 in 10.0 mi Calm Calm - N/A   Clear
1:15 PM 75.2 °F - 17.6 °F 11% 30.25 in 10.0 mi SW 6.9 mph - N/A   Clear
1:35 PM 75.2 °F - 17.6 °F 11% 30.24 in 10.0 mi SW 4.6 mph - N/A   Clear
1:55 PM 77.0 °F - 17.6 °F 11% 30.24 in 10.0 mi WNW 3.5 mph - N/A   Clear
2:15 PM 77.0 °F - 17.6 °F 11% 30.23 in 10.0 mi WNW 4.6 mph - N/A   Clear
2:35 PM 77.0 °F - 15.8 °F 10% 30.23 in 10.0 mi WNW 9.2 mph - N/A   Clear
3:15 PM 77.0 °F - 15.8 °F 10% 30.23 in 10.0 mi NW 5.8 mph - N/A   Clear
3:35 PM 77.0 °F - 15.8 °F 10% 30.23 in 10.0 mi SSW 3.5 mph - N/A   Clear
3:55 PM 77.0 °F - 15.8 °F 10% 30.22 in 10.0 mi WNW 9.2 mph - N/A   Clear
4:15 PM 75.2 °F - 15.8 °F 11% 30.22 in 10.0 mi NW 8.1 mph - N/A   Clear
4:35 PM 75.2 °F - 15.8 °F 11% 30.22 in 10.0 mi WNW 11.5 mph - N/A   Clear
4:55 PM 73.4 °F - 15.8 °F 11% 30.22 in 10.0 mi WNW 10.4 mph - N/A   Clear
5:15 PM 69.8 °F - 15.8 °F 13% 30.23 in 10.0 mi WNW 9.2 mph - N/A   Clear
5:35 PM 64.4 °F - 15.8 °F 15% 30.23 in 10.0 mi NW 10.4 mph - N/A   Clear
5:55 PM 59.0 °F - 14.0 °F 17% 30.24 in 10.0 mi WNW 9.2 mph - N/A   Clear
6:15 PM 59.0 °F - 14.0 °F 17% 30.24 in 10.0 mi NW 11.5 mph - N/A   Clear
6:35 PM 57.2 °F - 14.0 °F 18% 30.25 in 10.0 mi NW 11.5 mph - N/A   Clear
6:55 PM 57.2 °F - 14.0 °F 18% 30.26 in 10.0 mi NW 10.4 mph - N/A   Clear
7:15 PM 53.6 °F - 14.0 °F 21% 30.26 in 10.0 mi North 9.2 mph - N/A   Clear
7:35 PM 53.6 °F - 14.0 °F 21% 30.26 in 10.0 mi North 9.2 mph - N/A   Clear
7:55 PM 53.6 °F - 15.8 °F 22% 30.26 in 10.0 mi North 9.2 mph - N/A   Clear
8:15 PM 55.4 °F - 15.8 °F 21% 30.26 in 10.0 mi North 11.5 mph - N/A   Clear
8:35 PM 53.6 °F - 15.8 °F 22% 30.26 in 10.0 mi North 10.4 mph - N/A   Clear
8:55 PM 53.6 °F - 15.8 °F 22% 30.26 in 10.0 mi North 10.4 mph - N/A   Clear
9:15 PM 53.6 °F - 15.8 °F 22% 30.27 in 10.0 mi North 11.5 mph - N/A   Clear
9:35 PM 53.6 °F - 15.8 °F 22% 30.27 in 10.0 mi North 11.5 mph - N/A   Clear
9:55 PM 51.8 °F - 15.8 °F 24% 30.27 in 10.0 mi North 11.5 mph - N/A   Clear
10:15 PM 51.8 °F - 14.0 °F 22% 30.27 in 10.0 mi North 10.4 mph - N/A   Clear
10:35 PM 50.0 °F - 14.0 °F 24% 30.27 in 10.0 mi North 10.4 mph - N/A   Clear
10:55 PM 50.0 °F - 14.0 °F 24% 30.27 in 10.0 mi North 10.4 mph - N/A   Clear
11:15 PM 50.0 °F - 14.0 °F 24% 30.27 in 10.0 mi North 10.4 mph - N/A   Clear
11:35 PM 48.2 °F - 14.0 °F 25% 30.27 in 10.0 mi NNW 9.2 mph - N/A   Clear
11:55 PM 48.2 °F - 14.0 °F 25% 30.27 in 10.0 mi NNW 9.2 mph - N/A   Clear